Regional Weather Roundup
Issued by NWS

Home | Current Version | Previous Version | Graphics & Text | Print | Product List | Glossary On
Versions: 1 2 3 4 5 6 7 8 9 10 11 12 13 14 15 16 17 18 19 20 21 22 23 24 25 26 27 28 29 30 31 32 33 34 35 36 37 38 39 40 41 42 43 44 45 46 47 48 49 50
000
ASUS43 KLSX 130507
RWRMO

WEATHER SUMMARY FOR MISSOURI
NATIONAL WEATHER SERVICE SPRINGFIELD MO
1200 AM CDT SUN JUL 13 2014

NOTE: "FAIR" INDICATES FEW OR NO CLOUDS BELOW 12,000 FEET WITH NO
       SIGNIFICANT WEATHER AND/OR OBSTRUCTIONS TO VISIBILITY.
       CURRENT SKY AND/OR WEATHER CONDITIONS ARE NOT AVAILABLE FOR
       CHILLICOTHE AND FARMINGTON.

MOZ001>031-035>038-043-044-053-054-130600-
...NORTHERN AND WESTERN MISSOURI...

CITY           SKY/WX    TMP DP  RH WIND       PRES   REMARKS
KANSAS CTY INT CLEAR     83  68  60 S16G26    29.95F
KANSAS C DTWN  CLEAR     85  68  56 S15G24    29.94F
LEE`S SUMMIT   CLEAR     82  68  62 SW15G22   29.98F
ST JOSEPH      MOCLDY    79  70  74 W6        29.95R
CHILLICOTHE      N/A     80  72  76 S6        29.94F
KIRKSVILLE     MOCLDY    80  71  74 SW8       29.95F

$$
MOZ066>068-077>081-088>096-101>105-130600-
...SOUTHWEST MISSOURI...

CITY           SKY/WX    TMP DP  RH WIND       PRES   REMARKS
SPRINGFIELD    CLEAR     75  68  78 S8        30.08F
JOPLIN         CLEAR     80  65  59 S10       30.06S

$$
MOZ032>034-039>042-045>050-055>058-069>072-130600-
...CENTRAL MISSOURI...

CITY           SKY/WX    TMP DP  RH WIND       PRES   REMARKS
COLUMBIA       CLEAR     80  70  71 SW13      30.00F
JEFFERSON CITY CLEAR     81  70  69 S5        29.99F
ROLLA          CLEAR     77  69  76 S9        30.03F
SEDALIA        CLEAR     81  70  69 S10       30.00F
OSAGE BEACH    CLEAR     79  70  73 S6        30.03F

$$
MOZ051-052-059>065-130600-
...EAST CENTRAL MISSOURI...

CITY           SKY/WX    TMP DP  RH WIND       PRES   REMARKS
ST LOUIS INTL  MOCLDY    86  70  58 SW12      30.00F HX  90
SPIRIT OF STL  PTCLDY    83  69  62 SW8       29.98F
ST CHARLES     MOCLDY    80  70  71 SW6       29.97F

$$
MOZ072>076-082>087-097>100-106>115-130600-
...SOUTH CENTRAL AND SOUTHEAST MISSOURI...

CITY           SKY/WX    TMP DP  RH WIND       PRES   REMARKS
CAPE GIRARDEAU CLEAR     81  73  76 SW6       30.05F
FARMINGTON       N/A    N/A N/A N/A MISG        N/A
POPLAR BLUFF   CLEAR     77  71  82 S3        30.06S
WEST PLAINS    CLEAR     76  71  85 S3        30.12R

$$



USA.gov is the U.S. government's official web portal to all federal, state and local government web resources and services.